[Iaude] MPEC T92: 2023 TV2 [a=1.54,e=0.28,i=20.1,H=23.9]
    mpec at marsden.cfa.harvard.edu 
    mpec at marsden.cfa.harvard.edu
       
    Sun Oct  8 09:52:55 EDT 2023
    
    
  
M.P.E.C. 2023-T92                               Issued 2023 October 8, 13:51 UT
     The Minor Planet Electronic Circulars contain information on unusual
         minor planets, routine data on comets and natural satellites,
         and occasional editorial announcements.  They are published
    on behalf of Division F of the International Astronomical Union by the
          Minor Planet Center, Smithsonian Astrophysical Observatory,
                          Cambridge, MA 02138, U.S.A.
			  
             Prepared using the Tamkin Foundation Computer Network
                              MPC at CFA.HARVARD.EDU
            URL https://www.minorplanetcenter.net/    ISSN 1523-6714
                                    2023 TV2                                    
Observations:
     K23T02V  C2023 09 25.31885 01 29 16.45 +24 03 02.6          21.0 GVET092G96
     K23T02V  C2023 09 25.32919 01 29 17.40 +24 01 51.3          21.3 GVET092G96
     K23T02V*1C2023 10 05.35103201 42 56.509+04 56 37.50         22.10GVET092G96
     K23T02V 1C2023 10 05.35665301 42 56.707+04 56 02.51         21.18GVET092G96
     K23T02V 1C2023 10 05.36227601 42 56.948+04 55 27.70         20.97GVET092G96
     K23T02V 1C2023 10 05.36790301 42 57.168+04 54 51.16         20.97GVET092G96
     K23T02V KC2023 10 05.46938701 43 01.510+04 44 07.00         21.44GVET092I52
     K23T02V KC2023 10 05.47195401 43 01.650+04 43 49.70         21.28GVET092I52
     K23T02V  C2023 10 06.27351201 43 48.963+03 20 08.33         20.9 GVET092H01
     K23T02V  C2023 10 06.27718601 43 49.107+03 19 45.49         21.3 GVET092H01
     K23T02V  C2023 10 06.28965701 43 49.589+03 18 28.13         21.1 GVET092H01
     K23T02V  C2023 10 06.29452701 43 49.775+03 17 58.16         20.9 GVET092H01
     K23T02V  C2023 10 07.48985501 44 48.988+01 16 52.02         21.4 GVET092654
     K23T02V  C2023 10 07.50188301 44 49.417+01 15 40.48         21.4 GVET092654
     K23T02V  C2023 10 08.24807301 45 28.234+00 02 28.12         20.9 GVET092H01
     K23T02V  C2023 10 08.25202901 45 28.373+00 02 05.07         21.2 GVET092H01
     K23T02V  C2023 10 08.25722301 45 28.540+00 01 34.76         21.3 GVET092H01
     K23T02V  C2023 10 08.26068301 45 28.662+00 01 14.58         22.4 GVET092H01
     K23T02V KC2023 10 08.28656001 45 29.41 -00 01 16.7          21.2 GXET092858
     K23T02V KC2023 10 08.29690101 45 29.76 -00 02 16.4          21.2 GXET092858
     K23T02V  C2023 10 08.40977901 45 35.453-00 12 59.98         21.21wXET092F52
     K23T02V  C2023 10 08.42130901 45 35.801-00 14 06.26         21.45wXET092F52
     K23T02V  C2023 10 08.43284501 45 36.132-00 15 13.20         21.37wXET092F52
Observer details:
654 Table Mountain Observatory, Wrightwood-PHMC.  Observers N. Evans, P. Choi,
    N. Saini, C. Zhai, R. Trahan, M. Shao.  1.0-m Reflector + CCD.
858 Tebbutt Observatory, Edgewood.  Observer F. B. Zoltowski.  0.51-m f/8.1
    Schmidt-Cassegrain + CCD.
F52 Pan-STARRS 2, Haleakala.  Observers J. Bulger, T. Lowe, P. Minguez, A.
    Schultz, I. Smith.  Measurers K. Chambers, T. de Boer, J. Bulger, J.
    Fairlamb, H. Gao, M. Huber, C.-C. Lin, T. Lowe, E. Magnier, P. Minguez, Y.
    Ramanjooloo, A. Schultz, I. Smith, R. Wainscoat, R. Weryk.  1.8-m Ritchey-
    Chretien + CCD.
G96 Mt. Lemmon Survey.  Observers R. A. Kowalski, G. J. Leonard.  Measurers B.
    Gray, D. Rankin, F. C. Shelly, E. C. Beshore, D. Fay, J. B. Fazekas, D. C.
    Fuls, A. R. Gibbs, A. D. Grauer, H. Groeller, J. K. Hogan, R. A. Kowalski,
    S. M. Larson, G. J. Leonard, R. L. Seaman, K. W. Wierzchos.  1.5-m
    reflector + 10K CCD.
H01 Magdalena Ridge Observatory, Socorro.  Observers W. H. Ryan, E. V. Ryan.
    Measurer W. H. Ryan.  2.4-m f/8.9 Ritchey-Chretien + CCD.
I52 Steward Observatory, Mt. Lemmon Station.  Observer D. Rankin.  Measurers
    E. C. Beshore, D. Fay, J. B. Fazekas, D. C. Fuls, A. R. Gibbs, A. D.
    Grauer, H. Groeller, J. K. Hogan, R. A. Kowalski, S. M. Larson, G. J.
    Leonard, D. Rankin, R. L. Seaman, F. C. Shelly, K. W. Wierzchos.  1.0-m
    prime focus + CCD.
Orbital elements:
2023 TV2                                                 Earth MOID = 0.1613 AU
Epoch 2023 Sept. 13.0 TT = JDT 2460200.5                Bell                    
M  13.01928              (2000.0)            P               Q                  
n   0.51456814     Peri.  139.31686     +0.86451841     +0.49796549             
a   1.5423187      Node   191.42109     -0.50188766     +0.86254640             
e   0.2763244      Incl.   20.11667     +0.02677106     +0.08968881             
P   1.92           H   23.94          G   0.15           U   8                  
Residuals in seconds of arc
230925 G96  0.1-  0.2-    231006 H01  0.1+  0.2+    231008 H01  0.0   0.1-
230925 G96  0.1+  0.2+    231006 H01  0.1+  0.0     231008 H01  0.2+  0.2-
231005 G96  0.5+  0.9-    231006 H01  0.1+  0.1-    231008 858  0.3-  0.5-
231005 G96  0.0   0.2-    231006 H01  0.1+  0.0     231008 858  0.1+  0.2-
231005 G96  0.1+  0.8+    231007 654  0.3+  0.1-    231008 F52  0.1+  0.2+
231005 G96  0.1-  0.0     231007 654  0.4-  0.1+    231008 F52  0.2+  0.5+
231005 I52  0.7-  0.6+    231008 H01  0.1-  0.1+    231008 F52  0.1+  0.2+
231005 I52  0.3-  0.4-    231008 H01  0.0   0.0
Ephemeris:
2023 TV2                 a,e,i = 1.54, 0.28, 20                  q = 1.1161
Date    TT    R. A. (2000) Decl.     Delta      r    Elong.  Phase     V
2023 09 08    00 41 01.2 +50 45 40   0.2154  1.1295   119.5    50.9    22.8
...
2023 09 23    01 24 46.3 +28 28 19   0.1805  1.1555   144.5    30.3    21.8
...
2023 10 01    01 38 03.4 +13 00 17   0.1825  1.1742   159.6    17.3    21.5
...
2023 10 07    01 44 26.2 +02 06 26   0.1956  1.1902   165.7    12.0    21.5
2023 10 08    01 45 15.4 +00 27 05   0.1987  1.1930   165.8    11.9    21.5
2023 10 09    01 46 01.0 -01 08 55   0.2020  1.1959   165.6    12.0    21.6
...
2023 10 15    01 49 31.7 -09 29 15   0.2269  1.2138   160.6    15.8    22.0
...
2023 10 23    01 52 22.1 -17 17 31   0.2704  1.2396   151.6    22.5    22.6
...
2023 11 07    01 56 18.4 -24 14 24   0.3732  1.2927   137.9    30.9    23.7
M. P. C. Staff               (C) Copyright 2023 MPC           M.P.E.C. 2023-T92
    
    
More information about the Iaude
mailing list